EZY246Y EGKK-EGPH

Flight info

Callsign EZY246Y
Flight time 1h 12m
Altitude 30000
Route LAM L10 BPK UN601 RIBEL DCT INPIP
Aircraft A320/M-SDE3FGHIRWY/LB1

Departure

Time 2026-04-14 14:27
Airport London Gatwick Airport (EGKK)

Arrival

Time 2026-04-14 15:40
Airport Edinburgh Airport (EGPH)
Time Latitude Longitude Altitude Speed Heading
2026-04-14 13:51 51.16061 -0.18038 206 ft 0 kts 77°
2026-04-14 14:13 51.16060 -0.18041 206 ft 0 kts 77°
2026-04-14 14:15 51.16059 -0.18049 206 ft 0 kts 77°
2026-04-14 14:16 51.16059 -0.18051 206 ft 1 kts 77°
2026-04-14 14:16 51.16055 -0.18074 206 ft 2 kts 77°
2026-04-14 14:16 51.16052 -0.18097 206 ft 2 kts 76°
2026-04-14 14:17 51.16056 -0.18143 206 ft 2 kts 128°
2026-04-14 14:17 51.16067 -0.18159 206 ft 2 kts 154°
2026-04-14 14:17 51.16074 -0.18163 206 ft 1 kts 169°
2026-04-14 14:17 51.16080 -0.18165 206 ft 0 kts 168°
2026-04-14 14:20 51.16079 -0.18164 206 ft 0 kts 166°
2026-04-14 14:20 51.16068 -0.18160 206 ft 2 kts 166°
2026-04-14 14:21 51.16047 -0.18153 206 ft 3 kts 168°
2026-04-14 14:21 51.16016 -0.18142 206 ft 5 kts 167°
2026-04-14 14:21 51.15976 -0.18127 206 ft 6 kts 167°
2026-04-14 14:21 51.15926 -0.18110 206 ft 8 kts 167°
2026-04-14 14:22 51.15865 -0.18088 206 ft 10 kts 167°
2026-04-14 14:22 51.15788 -0.18060 206 ft 12 kts 167°
2026-04-14 14:22 51.15745 -0.18045 206 ft 1 kts 168°
2026-04-14 14:22 51.15733 -0.18041 206 ft 0 kts 168°
2026-04-14 14:23 51.15713 -0.18027 206 ft 11 kts 144°
2026-04-14 14:23 51.15705 -0.17895 206 ft 14 kts 78°
2026-04-14 14:23 51.15734 -0.17693 206 ft 21 kts 77°
2026-04-14 14:24 51.15728 -0.17509 206 ft 15 kts 148°
2026-04-14 14:24 51.15620 -0.17465 206 ft 17 kts 168°
2026-04-14 14:24 51.15494 -0.17422 206 ft 19 kts 166°
2026-04-14 14:24 51.15357 -0.17374 206 ft 20 kts 168°
2026-04-14 14:25 51.15279 -0.17348 206 ft 8 kts 167°
2026-04-14 14:25 51.15245 -0.17319 206 ft 0 kts 141°
2026-04-14 14:25 51.15241 -0.17314 206 ft 1 kts 133°
2026-04-14 14:25 51.15236 -0.17297 206 ft 2 kts 106°
2026-04-14 14:26 51.15235 -0.17293 206 ft 0 kts 101°
2026-04-14 14:26 51.15203 -0.17248 206 ft 17 kts 150°
2026-04-14 14:26 51.15051 -0.17351 206 ft 37 kts 248°
2026-04-14 14:27 51.14948 -0.18049 206 ft 97 kts 258°
2026-04-14 14:27 51.14762 -0.19405 206 ft 153 kts 257°
2026-04-14 14:27 51.14526 -0.21221 567 ft 170 kts 255°
2026-04-14 14:27 51.14292 -0.22989 1281 ft 165 kts 253°
2026-04-14 14:28 51.14056 -0.24788 1965 ft 165 kts 252°
2026-04-14 14:28 51.13801 -0.26634 2401 ft 177 kts 252°
2026-04-14 14:28 51.13774 -0.28690 2715 ft 202 kts 278°
2026-04-14 14:28 51.14482 -0.30809 2962 ft 234 kts 311°
2026-04-14 14:29 51.15941 -0.32144 3423 ft 252 kts 347°
2026-04-14 14:29 51.17654 -0.32000 3847 ft 253 kts 23°
2026-04-14 14:29 51.19031 -0.30371 3977 ft 248 kts 59°
2026-04-14 14:29 51.19684 -0.27882 3988 ft 240 kts 82°
2026-04-14 14:30 51.19955 -0.25258 3984 ft 239 kts 87°
2026-04-14 14:30 51.20176 -0.22635 3982 ft 239 kts 86°
2026-04-14 14:30 51.20434 -0.20011 3986 ft 243 kts 85°
2026-04-14 14:30 51.20751 -0.17245 3992 ft 265 kts 83°
2026-04-14 14:31 51.21117 -0.14314 4026 ft 274 kts 82°
2026-04-14 14:31 51.21514 -0.11273 4545 ft 278 kts 82°
2026-04-14 14:31 51.21915 -0.08233 4902 ft 278 kts 81°
2026-04-14 14:31 51.22310 -0.05234 4976 ft 278 kts 81°
2026-04-14 14:32 51.22705 -0.02227 4980 ft 277 kts 81°
2026-04-14 14:32 51.23099 0.00794 4982 ft 277 kts 81°
2026-04-14 14:32 51.23491 0.03802 4982 ft 277 kts 81°
2026-04-14 14:32 51.23877 0.06776 4984 ft 277 kts 81°
2026-04-14 14:33 51.24266 0.09794 4985 ft 277 kts 81°
2026-04-14 14:33 51.24654 0.12814 4988 ft 278 kts 81°
2026-04-14 14:33 51.25043 0.15839 4989 ft 277 kts 81°
2026-04-14 14:33 51.25427 0.18828 4987 ft 277 kts 81°
2026-04-14 14:34 51.26158 0.24879 4986 ft 276 kts 82°
2026-04-14 14:34 51.26511 0.27910 4986 ft 276 kts 82°
2026-04-14 14:34 51.26861 0.30908 5012 ft 276 kts 82°
2026-04-14 14:35 51.27304 0.33888 4982 ft 278 kts 68°
2026-04-14 14:35 51.28510 0.36301 4974 ft 282 kts 34°
2026-04-14 14:35 51.30323 0.37426 4985 ft 281 kts
2026-04-14 14:35 51.32239 0.37132 4989 ft 277 kts 341°
2026-04-14 14:36 51.34040 0.36080 4980 ft 276 kts 334°
2026-04-14 14:36 51.35793 0.34846 4984 ft 276 kts 333°
2026-04-14 14:36 51.37555 0.33592 4980 ft 276 kts 333°
2026-04-14 14:36 51.39308 0.32369 4984 ft 277 kts 334°
2026-04-14 14:37 51.41090 0.31149 4984 ft 277 kts 334°
2026-04-14 14:37 51.42881 0.29934 5072 ft 282 kts 334°
2026-04-14 14:37 51.44686 0.28713 5605 ft 282 kts 334°
2026-04-14 14:37 51.46478 0.27503 5929 ft 279 kts 334°
2026-04-14 14:38 51.48261 0.26296 5981 ft 278 kts 334°
2026-04-14 14:38 51.50043 0.25089 5982 ft 278 kts 334°
2026-04-14 14:38 51.51831 0.23877 5980 ft 278 kts 334°
2026-04-14 14:38 51.53618 0.22664 5978 ft 278 kts 334°
2026-04-14 14:39 51.55383 0.21464 5978 ft 278 kts 334°
2026-04-14 14:39 51.57171 0.20250 5979 ft 278 kts 334°
2026-04-14 14:39 51.58949 0.19041 5976 ft 278 kts 334°
2026-04-14 14:39 51.60725 0.17833 5977 ft 278 kts 334°
2026-04-14 14:40 51.62509 0.16618 5974 ft 278 kts 334°
2026-04-14 14:40 51.64211 0.15212 5974 ft 277 kts 320°
2026-04-14 14:40 51.65541 0.12976 6377 ft 279 kts 301°
2026-04-14 14:40 51.66589 0.10390 7360 ft 275 kts 300°
2026-04-14 14:41 51.67600 0.07823 8211 ft 277 kts 300°
2026-04-14 14:41 51.68643 0.05182 9003 ft 280 kts 301°
2026-04-14 14:41 51.69694 0.02535 9758 ft 284 kts 301°
2026-04-14 14:41 51.70759 -0.00130 10459 ft 289 kts 301°
2026-04-14 14:42 51.71869 -0.02904 10861 ft 306 kts 301°
2026-04-14 14:42 51.73052 -0.05860 11262 ft 321 kts 301°
2026-04-14 14:42 51.74338 -0.08845 11862 ft 328 kts 308°
2026-04-14 14:42 51.75957 -0.11414 12577 ft 332 kts 320°
2026-04-14 14:43 51.77879 -0.13501 13276 ft 336 kts 327°
2026-04-14 14:43 51.79895 -0.15421 13954 ft 339 kts 328°
2026-04-14 14:43 51.81937 -0.17335 14614 ft 341 kts 328°
2026-04-14 14:43 51.83972 -0.19250 15285 ft 343 kts 328°
2026-04-14 14:44 51.86046 -0.21211 15898 ft 345 kts 328°
2026-04-14 14:44 51.88107 -0.23170 16512 ft 347 kts 327°
2026-04-14 14:44 51.90183 -0.25148 17099 ft 350 kts 327°
2026-04-14 14:44 51.92294 -0.27164 17667 ft 352 kts 327°
2026-04-14 14:45 51.94406 -0.29184 18220 ft 355 kts 327°
2026-04-14 14:45 51.96536 -0.31227 18750 ft 357 kts 327°
2026-04-14 14:45 51.98644 -0.33249 19322 ft 358 kts 327°
2026-04-14 14:45 52.00788 -0.35311 19902 ft 358 kts 327°
2026-04-14 14:46 52.02905 -0.37349 20451 ft 358 kts 327°
2026-04-14 14:46 52.05050 -0.39416 20970 ft 359 kts 327°
2026-04-14 14:46 52.07188 -0.41476 21487 ft 360 kts 327°
2026-04-14 14:46 52.09333 -0.43547 22009 ft 360 kts 327°
2026-04-14 14:47 52.11518 -0.45658 22512 ft 361 kts 327°
2026-04-14 14:47 52.13670 -0.47740 22988 ft 362 kts 327°
2026-04-14 14:47 52.15842 -0.49845 23457 ft 363 kts 327°
2026-04-14 14:47 52.18018 -0.51955 23895 ft 365 kts 327°
2026-04-14 14:48 52.20169 -0.54046 24329 ft 367 kts 327°
2026-04-14 14:48 52.22384 -0.56199 24780 ft 368 kts 327°
2026-04-14 14:48 52.24562 -0.58318 25208 ft 369 kts 327°
2026-04-14 14:48 52.26764 -0.60462 25595 ft 371 kts 327°
2026-04-14 14:49 52.28988 -0.62631 25989 ft 373 kts 327°
2026-04-14 14:49 52.31211 -0.64805 26392 ft 374 kts 327°
2026-04-14 14:49 52.33469 -0.67016 26787 ft 375 kts 326°
2026-04-14 14:49 52.35699 -0.69197 27182 ft 376 kts 326°
2026-04-14 14:50 52.37943 -0.71397 27540 ft 377 kts 326°
2026-04-14 14:50 52.40188 -0.73598 27888 ft 379 kts 326°
2026-04-14 14:50 52.42460 -0.75829 28234 ft 380 kts 326°
2026-04-14 14:50 52.44711 -0.78043 28573 ft 381 kts 326°
2026-04-14 14:51 52.46985 -0.80285 28926 ft 382 kts 326°
2026-04-14 14:51 52.49289 -0.82557 29239 ft 383 kts 326°
2026-04-14 14:51 52.51560 -0.84801 29528 ft 385 kts 326°
2026-04-14 14:51 52.53842 -0.87058 29785 ft 387 kts 326°
2026-04-14 14:52 52.56170 -0.89363 30008 ft 389 kts 326°
2026-04-14 14:52 52.60791 -0.93945 30042 ft 388 kts 326°
2026-04-14 14:53 52.65410 -0.98537 30039 ft 389 kts 326°
2026-04-14 14:53 52.70030 -1.03146 30037 ft 389 kts 326°
2026-04-14 14:54 52.74655 -1.07765 30036 ft 388 kts 326°
2026-04-14 14:54 52.79255 -1.12374 30033 ft 389 kts 326°
2026-04-14 14:55 52.83878 -1.17018 30034 ft 390 kts 326°
2026-04-14 14:55 52.88502 -1.21671 30030 ft 390 kts 326°
2026-04-14 14:56 52.95492 -1.28728 30028 ft 390 kts 326°
2026-04-14 14:56 53.00110 -1.33408 30025 ft 389 kts 326°
2026-04-14 14:57 53.04704 -1.38074 30025 ft 390 kts 325°
2026-04-14 14:57 53.09348 -1.42802 30023 ft 389 kts 325°
2026-04-14 14:58 53.13900 -1.47450 30017 ft 390 kts 325°
2026-04-14 14:58 53.18511 -1.52170 30016 ft 390 kts 325°
2026-04-14 14:59 53.23127 -1.56906 30012 ft 389 kts 325°
2026-04-14 14:59 53.27752 -1.61662 30005 ft 390 kts 325°
2026-04-14 15:00 53.32404 -1.66463 30000 ft 390 kts 324°
2026-04-14 15:00 53.37038 -1.71255 30002 ft 392 kts 324°
2026-04-14 15:01 53.41665 -1.76051 29987 ft 391 kts 324°
2026-04-14 15:01 53.46294 -1.80860 29991 ft 391 kts 324°
2026-04-14 15:02 53.50891 -1.85647 29985 ft 391 kts 324°
2026-04-14 15:02 53.55531 -1.90485 29989 ft 391 kts 324°
2026-04-14 15:03 53.60145 -1.95318 29998 ft 391 kts 323°
2026-04-14 15:03 53.64757 -2.00162 30010 ft 391 kts 323°
2026-04-14 15:04 53.69358 -2.05019 30001 ft 392 kts 323°
2026-04-14 15:04 53.74097 -2.09665 29996 ft 395 kts 327°
2026-04-14 15:05 53.79084 -2.13524 30004 ft 397 kts 332°
2026-04-14 15:05 53.84227 -2.17046 29997 ft 397 kts 332°
2026-04-14 15:06 53.89335 -2.20527 29996 ft 397 kts 333°
2026-04-14 15:06 53.94444 -2.24032 29990 ft 397 kts 333°
2026-04-14 15:07 53.99542 -2.27533 29983 ft 396 kts 332°
2026-04-14 15:07 54.04636 -2.31046 29971 ft 396 kts 332°
2026-04-14 15:08 54.09777 -2.34603 29964 ft 398 kts 332°
2026-04-14 15:08 54.14808 -2.38088 29956 ft 398 kts 332°
2026-04-14 15:09 54.19400 -2.41277 29958 ft 398 kts 332°
2026-04-14 15:09 54.24538 -2.44856 29950 ft 398 kts 332°
2026-04-14 15:10 54.29641 -2.48420 29946 ft 398 kts 332°
2026-04-14 15:10 54.32226 -2.50229 29814 ft 399 kts 332°
2026-04-14 15:10 54.34775 -2.52019 29588 ft 399 kts 332°
2026-04-14 15:11 54.37320 -2.53803 29375 ft 398 kts 332°
2026-04-14 15:11 54.39906 -2.55620 29164 ft 397 kts 332°
2026-04-14 15:11 54.42427 -2.57392 28958 ft 397 kts 332°
2026-04-14 15:11 54.45000 -2.59201 28747 ft 396 kts 332°
2026-04-14 15:12 54.47525 -2.60983 28536 ft 395 kts 332°
2026-04-14 15:12 54.50046 -2.62766 28320 ft 394 kts 332°
2026-04-14 15:12 54.52585 -2.64559 28118 ft 394 kts 332°
2026-04-14 15:12 54.55114 -2.66351 27908 ft 394 kts 332°
2026-04-14 15:13 54.57660 -2.68159 27697 ft 393 kts 332°
2026-04-14 15:13 54.59772 -2.69660 27523 ft 391 kts 332°
2026-04-14 15:13 54.62209 -2.71389 27318 ft 391 kts 332°
2026-04-14 15:13 54.64702 -2.73166 27114 ft 390 kts 332°
2026-04-14 15:14 54.67186 -2.74934 26876 ft 389 kts 332°
2026-04-14 15:14 54.69684 -2.76717 26583 ft 388 kts 332°
2026-04-14 15:14 54.72176 -2.78499 26248 ft 386 kts 332°
2026-04-14 15:14 54.74634 -2.80257 25914 ft 385 kts 332°
2026-04-14 15:15 54.77116 -2.82036 25577 ft 384 kts 332°
2026-04-14 15:15 54.79556 -2.83783 25245 ft 383 kts 332°
2026-04-14 15:15 54.82021 -2.85557 24914 ft 381 kts 333°
2026-04-14 15:15 54.84450 -2.87304 24588 ft 380 kts 333°
2026-04-14 15:16 54.86873 -2.89050 24260 ft 378 kts 333°
2026-04-14 15:16 54.89305 -2.90805 23928 ft 377 kts 333°
2026-04-14 15:16 54.91719 -2.92551 23498 ft 376 kts 333°
2026-04-14 15:16 54.94133 -2.94294 23070 ft 374 kts 333°
2026-04-14 15:17 54.96516 -2.96020 22632 ft 373 kts 333°
2026-04-14 15:17 54.98907 -2.97755 22198 ft 372 kts 333°
2026-04-14 15:17 55.01294 -2.99486 21746 ft 371 kts 333°
2026-04-14 15:17 55.03655 -3.01204 21262 ft 370 kts 333°
2026-04-14 15:18 55.06028 -3.02930 20766 ft 370 kts 333°
2026-04-14 15:18 55.08391 -3.04649 20272 ft 367 kts 333°
2026-04-14 15:18 55.10601 -3.06259 19993 ft 358 kts 333°
2026-04-14 15:18 55.12857 -3.07902 19948 ft 342 kts 333°
2026-04-14 15:19 55.15022 -3.09482 19676 ft 336 kts 333°
2026-04-14 15:19 55.16314 -3.10428 19379 ft 336 kts 333°
2026-04-14 15:19 55.18442 -3.11994 18892 ft 336 kts 333°
2026-04-14 15:19 55.20589 -3.13573 18398 ft 336 kts 333°
2026-04-14 15:20 55.22034 -3.14636 18063 ft 336 kts 333°
2026-04-14 15:20 55.24229 -3.16253 17562 ft 336 kts 334°
2026-04-14 15:20 55.26385 -3.17839 17071 ft 337 kts 334°
2026-04-14 15:20 55.28526 -3.19424 16582 ft 337 kts 333°
2026-04-14 15:21 55.30607 -3.21234 16098 ft 335 kts 328°
2026-04-14 15:21 55.32607 -3.23304 15639 ft 333 kts 326°
2026-04-14 15:21 55.34546 -3.25456 15139 ft 330 kts 320°
2026-04-14 15:21 55.36218 -3.28123 14651 ft 327 kts 311°
2026-04-14 15:22 55.37797 -3.31034 14148 ft 327 kts 310°
2026-04-14 15:22 55.39332 -3.33932 13660 ft 328 kts 310°
2026-04-14 15:22 55.40870 -3.36854 13165 ft 328 kts 310°
2026-04-14 15:22 55.42406 -3.39769 12672 ft 328 kts 309°
2026-04-14 15:23 55.43956 -3.42699 12173 ft 327 kts 309°
2026-04-14 15:23 55.45509 -3.45629 11672 ft 326 kts 310°
2026-04-14 15:23 55.47064 -3.48557 11163 ft 326 kts 310°
2026-04-14 15:23 55.48605 -3.51448 10662 ft 325 kts 310°
2026-04-14 15:24 55.50141 -3.54324 10164 ft 324 kts 310°
2026-04-14 15:24 55.51670 -3.57176 9664 ft 323 kts 310°
2026-04-14 15:24 55.53207 -3.60041 9166 ft 322 kts 310°
2026-04-14 15:24 55.54752 -3.62918 8657 ft 322 kts 310°
2026-04-14 15:25 55.56277 -3.65755 8180 ft 320 kts 309°
2026-04-14 15:25 55.57626 -3.68259 7817 ft 307 kts 309°
2026-04-14 15:25 55.59067 -3.70918 7402 ft 292 kts 309°
2026-04-14 15:25 55.60231 -3.73054 7051 ft 280 kts 309°
2026-04-14 15:26 55.61430 -3.75249 6677 ft 269 kts 309°
2026-04-14 15:26 55.62484 -3.77173 6341 ft 261 kts 309°
2026-04-14 15:26 55.63737 -3.79450 5986 ft 257 kts 312°
2026-04-14 15:26 55.65268 -3.81086 5936 ft 259 kts 343°
2026-04-14 15:27 55.67072 -3.81184 5941 ft 261 kts 15°
2026-04-14 15:27 55.68750 -3.79982 5943 ft 259 kts 36°
2026-04-14 15:27 55.70015 -3.77820 5946 ft 255 kts 55°
2026-04-14 15:27 55.71070 -3.75299 5939 ft 254 kts 60°
2026-04-14 15:28 55.72004 -3.72655 5935 ft 253 kts 63°
2026-04-14 15:28 55.72897 -3.69933 5943 ft 253 kts 64°
2026-04-14 15:28 55.73780 -3.67269 5943 ft 253 kts 63°
2026-04-14 15:28 55.74662 -3.64544 5952 ft 252 kts 64°
2026-04-14 15:29 55.75519 -3.61867 5944 ft 252 kts 64°
2026-04-14 15:29 55.76382 -3.59164 5946 ft 253 kts 64°
2026-04-14 15:29 55.77245 -3.56445 5939 ft 251 kts 63°
2026-04-14 15:29 55.78098 -3.53738 5939 ft 252 kts 64°
2026-04-14 15:30 55.78957 -3.51022 5945 ft 252 kts 64°
2026-04-14 15:30 55.79812 -3.48322 5945 ft 252 kts 64°
2026-04-14 15:30 55.80678 -3.45584 5955 ft 252 kts 64°
2026-04-14 15:30 55.81533 -3.42863 5956 ft 252 kts 64°
2026-04-14 15:31 55.82379 -3.40168 5929 ft 252 kts 64°
2026-04-14 15:31 55.83236 -3.37438 5947 ft 252 kts 64°
2026-04-14 15:31 55.84062 -3.34801 5953 ft 253 kts 65°
2026-04-14 15:31 55.84911 -3.32077 5971 ft 253 kts 65°
2026-04-14 15:32 55.85769 -3.29324 5958 ft 253 kts 65°
2026-04-14 15:32 55.86621 -3.26592 5961 ft 252 kts 65°
2026-04-14 15:32 55.87477 -3.23855 5969 ft 252 kts 65°
2026-04-14 15:32 55.88343 -3.21092 5963 ft 252 kts 65°
2026-04-14 15:33 55.89194 -3.18369 5978 ft 252 kts 64°
2026-04-14 15:33 55.90037 -3.15663 5866 ft 253 kts 63°
2026-04-14 15:33 55.91191 -3.13246 5483 ft 261 kts 36°
2026-04-14 15:33 55.92812 -3.11815 5112 ft 264 kts 22°
2026-04-14 15:34 55.94545 -3.10711 4739 ft 266 kts 20°
2026-04-14 15:34 55.96301 -3.09681 4354 ft 267 kts 20°
2026-04-14 15:34 55.98052 -3.08676 4033 ft 264 kts 20°
2026-04-14 15:34 55.99787 -3.07696 3582 ft 260 kts 20°
2026-04-14 15:35 56.01501 -3.06753 3141 ft 253 kts 18°
2026-04-14 15:35 56.03195 -3.06446 2986 ft 249 kts 350°
2026-04-14 15:35 56.04774 -3.07695 2989 ft 250 kts 318°
2026-04-14 15:35 56.05780 -3.10143 2981 ft 242 kts 287°
2026-04-14 15:36 56.05937 -3.12943 2962 ft 216 kts 251°
2026-04-14 15:36 56.05286 -3.15137 2945 ft 189 kts 221°
2026-04-14 15:36 56.04358 -3.16667 2815 ft 179 kts 214°
2026-04-14 15:36 56.03396 -3.18076 2580 ft 178 kts 214°
2026-04-14 15:37 56.02441 -3.19448 2350 ft 177 kts 214°
2026-04-14 15:37 56.01474 -3.20834 2126 ft 177 kts 214°
2026-04-14 15:37 56.00542 -3.22221 1987 ft 177 kts 218°
2026-04-14 15:37 55.99686 -3.23859 1780 ft 178 kts 226°
2026-04-14 15:38 55.98981 -3.25578 1502 ft 169 kts 231°
2026-04-14 15:38 55.98368 -3.27305 1248 ft 159 kts 235°
2026-04-14 15:38 55.97824 -3.28932 1022 ft 145 kts 236°
2026-04-14 15:38 55.97326 -3.30410 832 ft 136 kts 236°
2026-04-14 15:39 55.96840 -3.31831 674 ft 136 kts 236°
2026-04-14 15:39 55.96344 -3.33288 495 ft 135 kts 237°
2026-04-14 15:39 55.95861 -3.34715 314 ft 134 kts 237°
2026-04-14 15:39 55.95374 -3.36145 163 ft 132 kts 238°
2026-04-14 15:40 55.95016 -3.37194 143 ft 75 kts 239°
2026-04-14 15:40 55.94782 -3.37885 143 ft 26 kts 240°
2026-04-14 15:40 55.94677 -3.38034 142 ft 21 kts 155°
2026-04-14 15:40 55.94613 -3.37964 142 ft 1 kts 147°
2026-04-14 15:41 55.94599 -3.37946 142 ft 3 kts 137°
2026-04-14 15:41 55.94590 -3.37898 142 ft 8 kts 90°
2026-04-14 15:41 55.94650 -3.37703 142 ft 22 kts 58°
2026-04-14 15:41 55.94730 -3.37462 142 ft 22 kts 60°
2026-04-14 15:42 55.94804 -3.37254 142 ft 17 kts 59°
2026-04-14 15:42 55.94868 -3.37060 142 ft 18 kts 59°
2026-04-14 15:42 55.94918 -3.36918 142 ft 9 kts 60°
2026-04-14 15:42 55.94908 -3.36810 142 ft 10 kts 144°
2026-04-14 15:43 55.94839 -3.36774 142 ft 8 kts 183°
2026-04-14 15:43 55.94780 -3.36772 142 ft 9 kts 166°
2026-04-14 15:43 55.94750 -3.36720 142 ft 0 kts 97°
2026-04-14 15:44 55.94750 -3.36719 142 ft 0 kts 109°
2026-04-14 15:45 55.94748 -3.36714 142 ft 1 kts 108°
2026-04-14 15:45 55.94748 -3.36707 142 ft 0 kts 87°
2026-04-14 15:45 55.94751 -3.36676 142 ft 3 kts 82°
2026-04-14 15:45 55.94752 -3.36626 142 ft 0 kts 89°
2026-04-14 15:46 55.94753 -3.36610 142 ft 2 kts 89°
2026-04-14 15:46 55.94753 -3.36608 142 ft 0 kts 89°